Tracking 30995 objects as of 5-Jul-2025
HD Live streaming from Space Station
objects crossing your sky now

COSMOS 2211

Track COSMOS 2211 now!
10-day predictions
COSMOS 2211 is classified as:


NORAD ID: 22182
Int'l Code: 1992-068A
Perigee: 1,408.1 km
Apogee: 1,418.7 km
Inclination: 82.6 °
Period: 113.9 minutes
Semi major axis: 7784 km
RCS: 1.1084 m2 (large)
Launch date: October 20, 1992
Source: Commonwealth of Independent States (former USSR) (CIS)
Launch site: PLESETSK MISSILE AND SPACE COMPLEX (PKMTR)
Your satellite tracking list
Track 1 satellite(s)




NASA's NSSDC Master Catalog

Two Line Element Set (TLE):
1 22182U 92068A   25186.53050598  .00000031  00000-0  11281-3 0  9997
2 22182  82.5944 182.8845 0006766 210.1308 275.3701 12.64054862508944
Source of the keplerian elements: AFSPC